When you browse on this site, cookies collect data to enhance your experience and personalize the content and advertising you see.
Visit our Privacy Policy to learn more. By continuing to use the site, you agree to this use of cookies and data.
  • In Czech Republic
  • List of Countries
  • For 7 days
  • Water Temperature
  • Satellite Maps
  • Weather Map
  • Weather Widgets
  • user-avatar
    Login

    Hourly Weather Rabat

    Today, 26 March, Tuesday

    Time Temperature Precipitation Wind Pressure Humidity
    00:00 +19°C° 0 mm 3 mps 753 mmHg 66%
    01:00 +20°C° 0 mm 3 mps 752 mmHg 62%
    02:00 +20°C° 0 mm 3 mps 752 mmHg 58%
    03:00 +20°C° 0 mm 2 mps 752 mmHg 55%
    04:00 +19°C° 0 mm 2 mps 751 mmHg 58%
    05:00 +19°C° 0 mm 2 mps 751 mmHg 61%
    06:00 +18°C° 0 mm 2 mps 751 mmHg 65%
    07:00 +19°C° 0 mm 2 mps 752 mmHg 66%
    08:00 +19°C° 0 mm 2 mps 752 mmHg 68%
    09:00 +20°C° 0 mm 3 mps 752 mmHg 69%
    10:00 +23°C° 0 mm 2 mps 752 mmHg 61%
    11:00 +25°C° 0 mm 2 mps 752 mmHg 52%
    12:00 +27°C° 0 mm 1 mps 752 mmHg 44%
    13:00 +27°C° 0 mm 3 mps 751 mmHg 45%
    14:00 +27°C° 0 mm 4 mps 751 mmHg 47%
    15:00 +27°C° 0 mm 6 mps 751 mmHg 48%
    16:00 +23°C° 0.5 mm 5 mps 751 mmHg 58%
    17:00 +21°C° 0.5 mm 4 mps 751 mmHg 68%
    18:00 +19°C° 0.5 mm 3 mps 751 mmHg 77%
    19:00 +19°C° 0.1 mm 3 mps 752 mmHg 78%
    20:00 +19°C° 0.1 mm 3 mps 753 mmHg 78%
    21:00 +18°C° 0.1 mm 3 mps 753 mmHg 79%
    22:00 +18°C° 0.1 mm 2 mps 754 mmHg 80%
    23:00 +19°C° 0.1 mm 1 mps 754 mmHg 82%

    Tomorrow, 27 March, Wednesday

    Time Temperature Precipitation Wind Pressure Humidity
    00:00 +16°C° 0.1 mm 0 mps 754 mmHg 84%
    01:00 +18°C° 0.2 mm 1 mps 754 mmHg 83%
    02:00 +17°C° 0.2 mm 2 mps 755 mmHg 83%
    03:00 +17°C° 0.2 mm 2 mps 755 mmHg 82%
    04:00 +16°C° 0.3 mm 3 mps 755 mmHg 81%
    05:00 +16°C° 0.3 mm 3 mps 755 mmHg 80%
    06:00 +15°C° 0.3 mm 4 mps 756 mmHg 79%
    07:00 +15°C° 0.1 mm 4 mps 756 mmHg 76%
    08:00 +17°C° 0.1 mm 4 mps 756 mmHg 74%
    09:00 +17°C° 0.1 mm 5 mps 757 mmHg 71%
    10:00 +19°C° 0 mm 5 mps 757 mmHg 68%
    11:00 +20°C° 0 mm 4 mps 757 mmHg 65%
    12:00 +21°C° 0 mm 4 mps 758 mmHg 62%
    13:00 +22°C° 0.1 mm 5 mps 757 mmHg 58%
    14:00 +23°C° 0.1 mm 5 mps 757 mmHg 54%
    15:00 +24°C° 0.1 mm 6 mps 757 mmHg 50%
    16:00 +23°C° 0.1 mm 6 mps 757 mmHg 52%
    17:00 +22°C° 0.1 mm 6 mps 757 mmHg 54%
    18:00 +21°C° 0.1 mm 5 mps 758 mmHg 56%
    19:00 +20°C° 0 mm 6 mps 758 mmHg 55%
    20:00 +17°C° 0 mm 6 mps 759 mmHg 53%
    21:00 +16°C° 0 mm 7 mps 760 mmHg 52%
    22:00 +15°C° 0 mm 7 mps 760 mmHg 54%
    23:00 +15°C° 0 mm 7 mps 760 mmHg 55%

    Day after tomorrow, 28 March, Thursday

    Time Temperature Precipitation Wind Pressure Humidity
    00:00 +14°C° 0 mm 7 mps 760 mmHg 56%
    01:00 +14°C° 0 mm 7 mps 759 mmHg 59%
    02:00 +13°C° 0 mm 6 mps 759 mmHg 61%
    03:00 +13°C° 0 mm 6 mps 759 mmHg 63%
    04:00 +13°C° 0 mm 6 mps 759 mmHg 65%
    05:00 +13°C° 0 mm 6 mps 759 mmHg 67%
    06:00 +13°C° 0 mm 5 mps 759 mmHg 69%
    07:00 +14°C° 0 mm 5 mps 759 mmHg 66%
    08:00 +16°C° 0 mm 5 mps 760 mmHg 63%
    09:00 +19°C° 0 mm 5 mps 760 mmHg 60%
    10:00 +20°C° 0 mm 5 mps 760 mmHg 57%
    11:00 +22°C° 0 mm 4 mps 760 mmHg 53%
    12:00 +25°C° 0 mm 4 mps 760 mmHg 50%
    13:00 +25°C° 0 mm 4 mps 759 mmHg 48%
    14:00 +26°C° 0 mm 4 mps 759 mmHg 47%
    15:00 +26°C° 0 mm 4 mps 758 mmHg 45%
    16:00 +25°C° 0 mm 4 mps 758 mmHg 48%
    17:00 +25°C° 0 mm 4 mps 758 mmHg 51%
    18:00 +23°C° 0 mm 4 mps 758 mmHg 54%
    19:00 +21°C° 0 mm 5 mps 759 mmHg 54%
    20:00 +20°C° 0 mm 5 mps 759 mmHg 55%
    21:00 +17°C° 0 mm 5 mps 760 mmHg 56%
    22:00 +16°C° 0 mm 5 mps 760 mmHg 58%
    23:00 +17°C° 0 mm 4 mps 760 mmHg 61%

    29 March, Friday

    Time Temperature Precipitation Wind Pressure Humidity
    00:00 +16°C° 0 mm 3 mps 759 mmHg 63%
    01:00 +16°C° 0 mm 3 mps 759 mmHg 65%
    02:00 +16°C° 0 mm 2 mps 759 mmHg 67%
    03:00 +16°C° 0 mm 2 mps 759 mmHg 69%
    04:00 +15°C° 0.1 mm 2 mps 759 mmHg 72%
    05:00 +15°C° 0.1 mm 2 mps 759 mmHg 76%
    06:00 +15°C° 0.1 mm 1 mps 759 mmHg 79%
    07:00 +16°C° 0 mm 1 mps 759 mmHg 75%
    08:00 +19°C° 0 mm 1 mps 759 mmHg 71%
    09:00 +21°C° 0 mm 1 mps 759 mmHg 67%
    10:00 +21°C° 0 mm 2 mps 759 mmHg 62%
    11:00 +23°C° 0 mm 2 mps 759 mmHg 57%
    12:00 +25°C° 0 mm 2 mps 759 mmHg 52%
    13:00 +25°C° 0.2 mm 3 mps 758 mmHg 52%
    14:00 +25°C° 0.2 mm 3 mps 758 mmHg 52%
    15:00 +26°C° 0.2 mm 4 mps 758 mmHg 52%
    16:00 +24°C° 0.1 mm 3 mps 758 mmHg 57%
    17:00 +22°C° 0.1 mm 3 mps 758 mmHg 62%
    18:00 +21°C° 0.1 mm 3 mps 758 mmHg 67%
    19:00 +19°C° 0.5 mm 2 mps 758 mmHg 73%
    20:00 +19°C° 0.5 mm 1 mps 758 mmHg 79%
    21:00 +16°C° 0.5 mm 0 mps 759 mmHg 84%
    22:00 +18°C° 0.2 mm 1 mps 759 mmHg 84%
    23:00 +18°C° 0.2 mm 1 mps 758 mmHg 83%

    30 March, Saturday

    Time Temperature Precipitation Wind Pressure Humidity
    00:00 +18°C° 0.2 mm 1 mps 758 mmHg 83%
    01:00 +17°C° 0.1 mm 2 mps 758 mmHg 84%
    02:00 +16°C° 0.1 mm 3 mps 757 mmHg 84%
    03:00 +15°C° 0.1 mm 4 mps 757 mmHg 84%
    04:00 +15°C° 0.4 mm 5 mps 756 mmHg 85%
    05:00 +14°C° 0.4 mm 5 mps 756 mmHg 85%
    06:00 +14°C° 0.4 mm 6 mps 756 mmHg 85%
    07:00 +15°C° 0.7 mm 5 mps 756 mmHg 83%
    08:00 +16°C° 0.7 mm 5 mps 756 mmHg 80%
    09:00 +17°C° 0.7 mm 5 mps 756 mmHg 78%
    10:00 +20°C° 0.3 mm 4 mps 756 mmHg 72%
    11:00 +21°C° 0.3 mm 3 mps 756 mmHg 66%
    12:00 +24°C° 0.3 mm 2 mps 756 mmHg 60%
    13:00 +22°C° 0.2 mm 4 mps 756 mmHg 64%
    14:00 +21°C° 0.2 mm 5 mps 756 mmHg 69%
    15:00 +20°C° 0.2 mm 6 mps 756 mmHg 73%
    16:00 +20°C° 0.5 mm 6 mps 756 mmHg 76%
    17:00 +19°C° 0.5 mm 5 mps 757 mmHg 78%
    18:00 +18°C° 0.5 mm 4 mps 758 mmHg 81%
    19:00 +17°C° 0 mm 4 mps 758 mmHg 84%
    20:00 +15°C° 0 mm 4 mps 759 mmHg 88%
    21:00 +15°C° 0 mm 4 mps 759 mmHg 91%
    22:00 +14°C° 0 mm 3 mps 759 mmHg 90%
    23:00 +14°C° 0 mm 3 mps 759 mmHg 90%

    31 March, Sunday

    Time Temperature Precipitation Wind Pressure Humidity
    00:00 +13°C° 0 mm 3 mps 759 mmHg 89%
    01:00 +13°C° 0 mm 3 mps 759 mmHg 89%
    02:00 +12°C° 0 mm 3 mps 759 mmHg 88%
    03:00 +12°C° 0 mm 3 mps 758 mmHg 87%
    04:00 +13°C° 0 mm 2 mps 758 mmHg 86%
    05:00 +12°C° 0 mm 2 mps 758 mmHg 85%
    06:00 +12°C° 0 mm 2 mps 758 mmHg 84%
    07:00 +14°C° 0 mm 2 mps 758 mmHg 77%
    08:00 +15°C° 0 mm 2 mps 758 mmHg 69%
    09:00 +18°C° 0 mm 1 mps 758 mmHg 61%
    10:00 +20°C° 0 mm 1 mps 758 mmHg 54%
    11:00 +21°C° 0 mm 1 mps 758 mmHg 47%
    12:00 +23°C° 0 mm 1 mps 757 mmHg 39%
    13:00 +23°C° 0 mm 2 mps 757 mmHg 40%
    14:00 +22°C° 0 mm 3 mps 756 mmHg 41%
    15:00 +22°C° 0 mm 4 mps 756 mmHg 42%
    16:00 +21°C° 0 mm 3 mps 756 mmHg 47%
    17:00 +19°C° 0 mm 3 mps 756 mmHg 52%
    18:00 +18°C° 0 mm 3 mps 756 mmHg 57%
    19:00 +17°C° 0 mm 2 mps 757 mmHg 61%
    20:00 +16°C° 0 mm 1 mps 757 mmHg 65%
    21:00 +15°C° 0 mm 1 mps 758 mmHg 70%
    22:00 +15°C° 0 mm 1 mps 758 mmHg 69%
    23:00 +15°C° 0 mm 2 mps 758 mmHg 69%
    Show more